Weather History for Lamoni, IA

Change the Weather History Date:

Saturday, September 29, 2012

  Actual Average Record
Temperature  
Mean Temperature 62 °F 60 °F  
Max Temperature 79 °F 71 °F 91 °F (2002)
Min Temperature 45 °F 48 °F 31 °F (1984)
Degree Days  
Heating Degree Days 3 7  
Month to date heating degree days 108 85  
Since 1 July heating degree days 109 93  
Cooling Degree Days 0 1  
Month to date cooling degree days 79 93  
Year to date cooling degree days 1290 931  
Growing Degree Days 12 (Base 50)    
Moisture  
Dew Point 42 °F    
Average Humidity 52    
Maximum Humidity 76    
Minimum Humidity 28    
Precipitation  
Precipitation 0.00 in 0.09 in 2.00 in (1985)
Month to date precipitation 0.78 3.39  
Sea Level Pressure  
Sea Level Pressure 30.11 in    
Wind  
Wind Speed 4 mph (West)    
Max Wind Speed 9 mph    
Max Gust Speed 12 mph    
Visibility 9 miles    
Events      
T = Trace of Precipitation, MM = Missing Value Source: NWS Daily Summary

Daily Weather History Graph

Daily Weather History Graph

Search for Another Location

Airport:

Trip Planner

Search our weather history database for the weather conditions in past years. The results will help you decide how hot, cold, wet, or windy it might be!

Date:

Astronomy

Sep. 29, 2012 Rise Set
Actual Time 7:10 AM CDT 7:00 PM CDT
Civil Twilight 6:43 AM CDT 7:27 PM CDT
Nautical Twilight 6:11 AM CDT 7:59 PM CDT
Astronomical Twilight 5:39 AM CDT 8:31 PM CDT
Moon 6:32 PM CDT (9/29) 6:42 AM CDT (9/29)
Length of Visible Light 12h 44m
Length of Day
11h 49m
Full, 100% of the Moon is Illuminated
Sep 29
Full
Sep 29
Full
Oct 8
Last Quarter
Oct 15
New
Oct 21
First Quarter

Hourly Weather History & Observations

Time (CDT) Temp. Windchill Dew Point Humidity Pressure Visibility Wind Dir Wind Speed Gust Speed Precip Events Conditions
12:53 AM 57.9 °F - 37.9 °F 47% 30.16 in 10.0 mi SSE 3.5 mph - N/A   Clear
1:53 AM 50.0 °F - 39.9 °F 68% 30.16 in 10.0 mi Calm Calm - N/A   Clear
2:53 AM 46.9 °F - 39.9 °F 77% 30.17 in 10.0 mi SW 3.5 mph - N/A   Clear
3:53 AM 48.0 °F - 39.9 °F 74% 30.16 in 10.0 mi WSW 4.6 mph - N/A   Clear
4:53 AM 48.9 °F - 39.9 °F 71% 30.16 in 10.0 mi Calm Calm - N/A   Clear
5:53 AM 50.0 °F - 41.0 °F 71% 30.16 in 10.0 mi NNW 3.5 mph - N/A   Clear
6:53 AM 46.9 °F - 39.9 °F 77% 30.17 in 10.0 mi North 4.6 mph - N/A   Clear
7:53 AM 46.0 °F 44.8 °F 39.9 °F 79% 30.18 in 10.0 mi NW 3.5 mph - N/A   Clear
8:53 AM 55.0 °F - 46.0 °F 72% 30.19 in 10.0 mi Calm Calm - N/A   Clear
9:53 AM 64.9 °F - 48.9 °F 56% 30.18 in 10.0 mi NW 4.6 mph - N/A   Clear
10:53 AM 69.1 °F - 46.0 °F 44% 30.17 in 10.0 mi Variable 3.5 mph - N/A   Clear
11:53 AM 71.1 °F - 41.0 °F 34% 30.15 in 10.0 mi ENE 4.6 mph - N/A   Clear
12:53 PM 73.9 °F - 41.0 °F 30% 30.12 in 10.0 mi Variable 3.5 mph - N/A   Clear
1:53 PM 75.0 °F - 41.0 °F 29% 30.10 in 10.0 mi Calm Calm - N/A   Clear
2:53 PM 77.0 °F - 41.0 °F 28% 30.07 in 10.0 mi East 3.5 mph - N/A   Clear
3:53 PM 77.0 °F - 42.1 °F 29% 30.05 in 7.0 mi South 5.8 mph - N/A   Clear
4:53 PM 77.0 °F - 42.1 °F 29% 30.04 in 10.0 mi Calm Calm - N/A   Clear
5:53 PM 75.0 °F - 44.1 °F 33% 30.04 in 7.0 mi WSW 3.5 mph - N/A   Clear
6:14 PM 73.4 °F - 44.6 °F 36% 30.04 in 2.5 mi Calm Calm - N/A   Haze
6:21 PM 75.2 °F - 42.8 °F 31% 30.04 in 4.0 mi SW 3.5 mph - N/A   Haze
6:53 PM 72.0 °F - 44.1 °F 37% 30.04 in 9.0 mi SW 3.5 mph - N/A   Clear
7:53 PM 64.9 °F - 43.0 °F 45% 30.04 in 10.0 mi West 4.6 mph - N/A   Clear
8:53 PM 64.9 °F - 42.1 °F 43% 30.04 in 10.0 mi West 5.8 mph - N/A   Clear
9:53 PM 61.0 °F - 42.1 °F 50% 30.04 in 10.0 mi West 5.8 mph - N/A   Clear
10:53 PM 57.9 °F - 42.1 °F 56% 30.04 in 10.0 mi WNW 6.9 mph - N/A   Clear
11:53 PM 55.9 °F - 42.1 °F 60% 30.03 in 10.0 mi WNW 6.9 mph - N/A   Clear